Location: Sweetwater (historical)
(38.4624°N, 119.1749°W)
Time: 13:39:14
(UTC+00:00)

Cosmos 1953 Rocket - Pass Details

Date: 13 August 2020
Orbit: 604 x 635 km, 82.5° (Epoch: 20 September)

Event Time Altitude Azimuth Distance (km) Brightness Sun altitude
Rises 12:09:50 0° 342° (NNW) 2,937 7.2 -11.5°
Reaches altitude 10° 12:12:15 10° 332° (NNW) 2,022 6.2 -11.1°
Maximum altitude 12:16:14 32° 270° (W) 1,079 4.3 -10.4°
Drops below altitude 10° 12:20:11 10° 207° (SSW) 1,995 5.7 -9.8°
Enters shadow 12:21:29 - 201° (SSW) 2,478 6.2 -9.5°
